Location: Cañada de la Miga
(34.7595°N, 106.2317°W)
Time: 06:23:49
(UTC+00:00)

Transit 4A - Pass Details

Date: 08 December 2021
Orbit: 864 x 980 km, 66.8° (Epoch: 16 January)

Event Time Altitude Azimuth Distance (km) Brightness Sun altitude
Rises 12:31:01 0° 306° (NW) 3,656 - -17.8°
Reaches altitude 10° 12:36:18 10° 269° (W) 2,721 - -16.8°
Maximum altitude 12:37:24 11° 259° (W) 2,687 - -16.6°
Drops below altitude 10° 12:38:31 10° 249° (WSW) 2,723 - -16.4°
Exits shadow 12:39:45 - 238° (WSW) 2,841 10.1 -16.1°
Sets 12:43:50 0° 212° (SSW) 3,667 10.9 -15.3°
